[[{"header":{"parameterUnit":"m.s-1","parameterCategory":1,"la1":30.2992,"la2":30.254,"lo1":-89.0895,"lo2":-89.0443,"dy":0.0025,"dx":0.0025,"nx":19,"ny":19,"refTime":"2026-05-17T03:00:00:Z","depth":0,"parameterNumber":2,"parameterNumberName":"U-component_of_WINDS"},"data":[0,0,0,-5.2096,-5.2099,-5.2244,-5.2244,-5.2447,-5.2449,0,0,0,0,0,0,0,0,0,0,0,-5.2064,-5.2066,-5.2096,-5.21,-5.2244,-5.2244,-5.2447,-5.2449,0,0,0,0,0,0,0,0,0,0,0,-5.2063,-5.2065,-5.2067,-5.21,-5.2244,-5.2245,-5.2447,-5.2331,0,0,0,0,0,0,0,0,0,0,-5.2188,-5.2168,-5.2065,-5.2067,-5.2101,-5.2244,-5.2245,-5.2325,-5.2338,-5.239,0,-5.2438,0,-5.2447,-5.2464,-5.2465,0,0,0,-5.2092,-5.2158,-5.2187,-5.2068,-5.2103,-5.2244,-5.2177,-5.2332,-5.2347,-5.2407,-5.2441,-5.2448,-5.245,-5.2465,-5.2467,-5.2789,-5.2791,0,0,-5.2084,-5.2096,-5.2177,-5.2197,-5.2176,-5.2172,-5.2181,-5.2341,-5.2378,-5.2441,-5.2452,-5.2454,-5.2467,-5.2469,-5.2788,-5.279,0,0,0,-5.2066,-5.209,-5.2115,-5.2189,-5.2214,-5.2176,-5.2187,-5.2371,-5.2378,-5.2454,-5.2456,-5.2468,-5.2471,-5.2785,-5.2788,-5.2892,0,0,0,-5.2061,-5.208,-5.2112,-5.2121,-5.2211,-5.2294,-5.2214,-5.2367,-5.2385,-5.2455,-5.2468,-5.2473,-5.2783,-5.2787,-5.2885,-5.2939,0,0,0,-5.2051,-5.2079,-5.2103,-5.2121,-5.2184,-5.2291,-5.2308,-5.2371,-5.2387,-5.2465,-5.2474,-5.2782,-5.2786,-5.2878,-5.2928,-5.3027,0,0,0,-5.2043,-5.2194,-5.2105,-5.2274,-5.2183,-5.2355,-5.2306,-5.2434,-5.2514,-5.2469,-5.2784,-5.2788,-5.2876,-5.2921,-5.302,-5.3111,-5.315,0,0,-5.224,-5.2218,-5.2317,-5.2242,-5.2432,-5.2332,-5.2539,-5.26,-5.2597,-5.2726,-5.2733,-5.2887,-5.2927,-5.3025,-5.337,-5.3401,0,0,0,-5.2383,-5.2454,-5.2502,-5.2578,-5.2629,-5.2678,-5.2706,-5.273,-5.2838,-5.2666,-5.295,-5.2974,-5.303,-5.3073,-5.31,-5.3148,-5.2809,-5.2808,-5.2808,-5.2677,-5.2665,-5.2827,-5.2833,-5.2908,-5.2937,-5.2997,-5.3033,-5.2999,-5.3067,-5.3104,-5.3314,-5.3365,-5.3385,-5.3435,-5.3152,-5.3153,-5.3153,-5.3153,-5.2962,-5.306,-5.3013,-5.3152,-5.314,-5.3257,-5.3292,-5.3264,-5.3372,-5.3285,-5.3334,-5.3239,-5.342,-5.3463,-5.3161,-5.316,-5.3159,-5.3158,-5.3158,-5.3152,-5.3197,-5.3223,-5.3333,-5.3419,-5.3421,-5.3527,-5.3511,-5.3498,-5.3547,-5.3584,-5.3583,-5.3578,-5.3566,-5.3567,-5.3568,-5.3568,-5.3569,-5.3569,-5.3338,-5.3364,-5.3455,-5.3523,-5.357,-5.3631,-5.3663,-5.371,-5.3757,-5.3738,-5.3738,-5.3697,-5.344,-5.3375,-5.3581,-5.3579,-5.3577,-5.3576,-5.3575,-5.3629,-5.3561,-5.3701,-5.3749,-5.3828,-5.3915,-5.3895,-5.3991,-5.4027,-5.408,-5.403,-5.3843,-5.3819,-5.3798,-5.3743,-5.4032,-5.4032,-5.4032,-5.4032,-5.3788,-5.3775,-5.3915,-5.3992,-5.4066,-5.4063,-5.4222,-5.425,-5.4267,-5.4289,-5.4246,-5.4173,-5.4152,-5.4141,-5.4112,-5.4061,-5.4424,-5.4425,-5.4425,-5.3965,-5.3959,-5.4097,-5.4113,-5.4174,-5.4227,-5.4377,-5.4468,-5.4474,-5.4441,-5.4306,-5.4289,-5.4172,-5.4135,-5.4096,-5.4052,-5.3958,0,0]},{"header":{"parameterUnit":"m.s-1","parameterCategory":1,"la1":30.2992,"la2":30.254,"lo1":-89.0895,"lo2":-89.0443,"dy":0.0025,"dx":0.0025,"nx":19,"ny":19,"refTime":"2026-05-17T03:00:00:Z","depth":0,"parameterNumber":3,"parameterNumberName":"V-component_of_WINDS"},"data":[0,0,0,3.5051,3.5051,3.5077,3.5077,3.511,3.5111,0,0,0,0,0,0,0,0,0,0,0,3.5044,3.5044,3.505,3.5051,3.5077,3.5077,3.511,3.5111,0,0,0,0,0,0,0,0,0,0,0,3.5043,3.5044,3.5044,3.5051,3.5077,3.5077,3.511,3.509,0,0,0,0,0,0,0,0,0,0,3.5065,3.5059,3.5044,3.5044,3.5051,3.5077,3.5077,3.5089,3.5092,3.5099,0,3.5106,0,3.5109,3.5113,3.5113,0,0,0,3.505,3.5058,3.5064,3.5044,3.5052,3.5077,3.5065,3.5091,3.5093,3.5102,3.5106,3.5108,3.5109,3.5113,3.5113,3.5159,3.5159,0,0,3.5049,3.5048,3.5063,3.5066,3.5063,3.5064,3.5066,3.5092,3.5097,3.5107,3.5108,3.511,3.5113,3.5114,3.5159,3.5159,0,0,0,3.5045,3.5047,3.5053,3.5065,3.5069,3.5065,3.5067,3.5096,3.5098,3.5109,3.511,3.5114,3.5114,3.5159,3.5159,3.5171,0,0,0,3.5045,3.5045,3.5053,3.5052,3.5069,3.5083,3.507,3.5096,3.5099,3.511,3.5114,3.5114,3.5158,3.5159,3.517,3.5176,0,0,0,3.5042,3.5045,3.5049,3.5052,3.5063,3.5082,3.5086,3.5097,3.51,3.5113,3.5114,3.5158,3.5159,3.5169,3.5175,3.5188,0,0,0,3.5038,3.5058,3.5049,3.5072,3.5063,3.509,3.5086,3.5106,3.5118,3.5114,3.5158,3.5159,3.5169,3.5174,3.5187,3.5198,3.5203,0,0,3.5063,3.5061,3.5075,3.5068,3.5096,3.5086,3.5116,3.5128,3.5129,3.5149,3.515,3.517,3.5175,3.5188,3.5232,3.5236,0,0,0,3.5082,3.5092,3.51,3.5113,3.5123,3.5132,3.514,3.5145,3.5162,3.514,3.5179,3.5181,3.5189,3.5195,3.5198,3.5204,3.5162,3.5162,3.5162,3.5115,3.5118,3.5141,3.5146,3.5159,3.5167,3.5177,3.5185,3.5182,3.5192,3.5197,3.5224,3.5231,3.5233,3.524,3.5204,3.5204,3.5204,3.5204,3.5152,3.5166,3.5164,3.5186,3.5188,3.5206,3.5215,3.5213,3.523,3.522,3.5227,3.5215,3.5237,3.5243,3.5205,3.5205,3.5205,3.5205,3.5205,3.5173,3.518,3.5187,3.5206,3.5221,3.5226,3.5242,3.5244,3.5245,3.5252,3.5258,3.5257,3.5257,3.5255,3.5255,3.5255,3.5255,3.5255,3.5255,3.5192,3.5199,3.5213,3.5227,3.5236,3.5248,3.5258,3.5267,3.5276,3.5276,3.5276,3.5272,3.524,3.5231,3.5256,3.5256,3.5256,3.5256,3.5256,3.5227,3.522,3.5242,3.5251,3.5268,3.5283,3.5285,3.5302,3.531,3.5318,3.5314,3.529,3.5287,3.5285,3.5277,3.5313,3.5313,3.5313,3.5313,3.5244,3.5244,3.5267,3.5282,3.5296,3.5301,3.5326,3.5334,3.5341,3.5346,3.5341,3.5332,3.5329,3.5329,3.5325,3.5318,3.5364,3.5364,3.5364,3.5266,3.5267,3.5288,3.5296,3.531,3.5322,3.5345,3.5362,3.5368,3.5366,3.535,3.5347,3.5333,3.5328,3.5324,3.5319,3.5306,0,0]}]]